| time (UTC) | temp C | wind direction | speed KPH | gust KPH | rain 1hr cm | rain 24hr cm | rain mn cm | humidity % | barometer mb |
| 20260507015315 | 9 | 302 | 3.2 | 6.4 | 0.10 | 18.59 | 0.05 | 88 | 1012.5 |
| 20260507014833 | 9 | 275 | 3.2 | 6.4 | 0.10 | 18.59 | 0.05 | 89 | 1012.4 |
| 20260507014332 | 9 | 277 | 0.0 | 4.8 | 0.00 | 18.49 | 0.03 | 88 | 1012.4 |
| 20260507013853 | 9 | 275 | 3.2 | 6.4 | 0.00 | 18.49 | 0.03 | 88 | 1012.5 |
| 20260507013328 | 9 | 276 | 4.8 | 6.4 | 0.00 | 18.49 | 0.03 | 89 | 1012.5 |
| 20260507012827 | 9 | 14 | 0.0 | 4.8 | 0.00 | 18.49 | 0.03 | 87 | 1012.4 |
| 20260507012326 | 9 | 32 | 3.2 | 4.8 | 0.00 | 18.49 | 0.03 | 88 | 1012.5 |
| 20260507011824 | 9 | 255 | 0.0 | 4.8 | 0.00 | 18.49 | 0.03 | 87 | 1012.4 |
| 20260507011323 | 9 | 304 | 3.2 | 4.8 | 0.00 | 18.49 | 0.03 | 87 | 1012.3 |
| 20260507010821 | 9 | 302 | 3.2 | 4.8 | 0.00 | 18.49 | 0.03 | 88 | 1012.4 |
| 20260507010340 | 9 | 74 | 0.0 | 4.8 | 0.00 | 18.49 | 0.03 | 88 | 1012.4 |
| 20260507005817 | 9 | 331 | 0.0 | 4.8 | 0.00 | 18.49 | 0.03 | 87 | 1012.4 |
| 20260507005315 | 9 | 301 | 0.0 | 6.4 | 0.00 | 18.49 | 0.03 | 88 | 1012.5 |
| 20260507004815 | 9 | 290 | 1.6 | 6.4 | 0.00 | 18.49 | 0.03 | 88 | 1012.4 |
| 20260507004315 | 9 | 254 | 3.2 | 8.0 | 0.00 | 18.49 | 0.03 | 87 | 1012.6 |
| 20260507003815 | 9 | 280 | 6.4 | 11.3 | 0.00 | 18.49 | 0.03 | 87 | 1012.6 |
| 20260507003315 | 9 | 262 | 6.4 | 8.0 | 0.00 | 18.49 | 0.03 | 87 | 1012.7 |
| 20260507002831 | 9 | 285 | 4.8 | 14.5 | 0.10 | 18.49 | 0.03 | 86 | 1012.7 |
| 20260507002329 | 9 | 263 | 9.7 | 12.9 | 0.10 | 18.49 | 0.03 | 87 | 1012.7 |
| 20260507001829 | 9 | 270 | 9.7 | 12.9 | 0.10 | 18.49 | 0.03 | 88 | 1012.7 |
| 20260507001330 | 9 | 272 | 6.4 | 8.0 | 0.10 | 18.59 | 0.03 | 88 | 1012.8 |
| 20260507000829 | 9 | 239 | 6.4 | 8.0 | 0.10 | 18.59 | 0.03 | 87 | 1012.8 |
| 20260507000329 | 9 | 262 | 3.2 | 4.8 | 0.10 | 18.59 | 0.03 | 88 | 1012.8 |
| 20260506235829 | 9 | 344 | 1.6 | 4.8 | 0.10 | 18.59 | 0.03 | 87 | 1012.7 |
| 20260506235343 | 9 | 305 | 1.6 | 3.2 | 0.10 | 18.59 | 0.03 | 87 | 1012.8 |
| 20260506234820 | 9 | 305 | 0.0 | 4.8 | 0.10 | 18.59 | 0.03 | 87 | 1012.7 |
| 20260506234318 | 9 | 315 | 3.2 | 4.8 | 0.10 | 18.59 | 0.03 | 87 | 1012.6 |
| 20260506233818 | 9 | 250 | 3.2 | 6.4 | 0.10 | 18.59 | 0.03 | 87 | 1012.7 |
| 20260506233317 | 9 | 252 | 3.2 | 9.7 | 0.10 | 18.59 | 0.03 | 86 | 1012.7 |
| 20260506232816 | 9 | 261 | 3.2 | 6.4 | 0.00 | 18.49 | 0.00 | 86 | 1012.6 |
| 20260506232336 | 9 | 234 | 3.2 | 9.7 | 0.00 | 18.49 | 0.00 | 87 | 1012.7 |
| 20260506231814 | 9 | 282 | 4.8 | 9.7 | 0.00 | 18.49 | 0.00 | 87 | 1012.8 |
| 20260506231332 | 9 | 293 | 3.2 | 4.8 | 0.00 | 18.49 | 0.00 | 87 | 1012.8 |
| 20260506230830 | 9 | 331 | 0.0 | 4.8 | 0.00 | 18.49 | 0.00 | 86 | 1012.7 |
| 20260506230326 | 9 | 313 | 1.6 | 4.8 | 0.00 | 18.49 | 0.00 | 88 | 1012.6 |
| 20260506225844 | 9 | 264 | 3.2 | 6.4 | 0.00 | 18.49 | 0.00 | 87 | 1012.6 |
| 20260506225324 | 9 | 254 | 4.8 | 8.0 | 0.00 | 18.49 | 0.00 | 87 | 1012.7 |
| 20260506224824 | 9 | 277 | 4.8 | 11.3 | 0.00 | 18.49 | 0.00 | 86 | 1012.6 |
| 20260506224322 | 9 | 260 | 4.8 | 14.5 | 0.00 | 18.49 | 0.00 | 87 | 1012.6 |
| 20260506223821 | 8 | 271 | 9.7 | 12.9 | 0.10 | 18.49 | 0.00 | 88 | 1012.7 |
| 20260506223320 | 8 | 275 | 4.8 | 6.4 | 0.10 | 18.49 | 0.00 | 88 | 1012.7 |
| 20260506222816 | 8 | 303 | 3.2 | 6.4 | 0.10 | 18.49 | 0.00 | 88 | 1012.8 |
| 20260506222314 | 9 | 321 | 4.8 | 6.4 | 0.20 | 18.49 | 0.00 | 88 | 1012.7 |
| 20260506221832 | 9 | 269 | 3.2 | 6.4 | 0.30 | 18.49 | 0.00 | 88 | 1012.8 |
| 20260506221313 | 9 | 294 | 4.8 | 6.4 | 0.30 | 20.09 | 3.71 | 88 | 1012.8 |
| 20260506220813 | 9 | 292 | 3.2 | 6.4 | 0.30 | 20.09 | 3.71 | 88 | 1012.8 |
| 20260506220312 | 9 | 229 | 4.8 | 6.4 | 0.30 | 20.09 | 3.71 | 87 | 1012.8 |
| 20260506215832 | 9 | 303 | 3.2 | 6.4 | 0.30 | 20.09 | 3.71 | 85 | 1012.8 |
| 20260506215331 | 9 | 329 | 1.6 | 3.2 | 0.30 | 20.09 | 3.71 | 85 | 1012.9 |
| 20260506214850 | 9 | 339 | 1.6 | 8.0 | 0.30 | 20.09 | 3.71 | 85 | 1012.9 |
| 20260506214329 | 9 | 300 | 4.8 | 6.4 | 0.30 | 20.09 | 3.71 | 87 | 1012.8 |
| 20260506213848 | 9 | 289 | 1.6 | 6.4 | 0.20 | 19.99 | 3.68 | 88 | 1012.9 |
| 20260506213326 | 9 | 279 | 0.0 | 6.4 | 0.20 | 19.99 | 3.68 | 87 | 1012.8 |
| 20260506212825 | 9 | 258 | 4.8 | 8.0 | 0.20 | 19.99 | 3.68 | 88 | 1013.0 |
| 20260506212325 | 10 | 280 | 4.8 | 12.9 | 0.10 | 19.89 | 3.66 | 88 | 1012.8 |
| 20260506211844 | 9 | 290 | 9.7 | 12.9 | 0.00 | 19.81 | 3.63 | 87 | 1012.9 |
| 20260506211321 | 10 | 261 | 9.7 | 12.9 | 0.00 | 19.89 | 3.63 | 88 | 1012.9 |
| 20260506210821 | 10 | 263 | 8.0 | 11.3 | 0.00 | 19.89 | 3.63 | 87 | 1012.8 |
| 20260506210322 | 10 | 282 | 6.4 | 11.3 | 0.00 | 19.89 | 3.63 | 87 | 1012.8 |
| 20260506205820 | 10 | 300 | 6.4 | 11.3 | 0.00 | 19.89 | 3.63 | 86 | 1012.9 |
| 20260506205320 | 10 | 84 | 4.8 | 8.0 | 0.00 | 19.89 | 3.63 | 84 | 1012.8 |
| 20260506204820 | 10 | 266 | 3.2 | 8.0 | 0.00 | 19.89 | 3.63 | 85 | 1012.8 |
| 20260506204320 | 10 | 259 | 4.8 | 12.9 | 0.00 | 19.89 | 3.63 | 84 | 1012.9 |
| 20260506203820 | 10 | 355 | 3.2 | 14.5 | 0.00 | 19.89 | 3.63 | 83 | 1012.9 |
| 20260506203318 | 10 | 5 | 6.4 | 16.1 | 0.00 | 19.89 | 3.63 | 82 | 1012.8 |
| 20260506202819 | 10 | 38 | 4.8 | 19.3 | 0.00 | 19.89 | 3.63 | 84 | 1012.8 |
| 20260506202319 | 10 | 275 | 1.6 | 4.8 | 0.00 | 19.89 | 3.63 | 88 | 1012.8 |
| 20260506201819 | 10 | 229 | 1.6 | 8.0 | 0.00 | 19.89 | 3.63 | 88 | 1012.7 |
| 20260506201319 | 10 | 224 | 6.4 | 9.7 | 0.00 | 19.99 | 3.63 | 88 | 1012.5 |
| 20260506200838 | 10 | 90 | 0.0 | 4.8 | 0.00 | 19.99 | 3.63 | 89 | 1012.6 |
| 20260506200317 | 10 | 90 | 3.2 | 6.4 | 0.00 | 19.99 | 3.63 | 89 | 1012.6 |
| 20260506195816 | 10 | 33 | 3.2 | 6.4 | 0.00 | 19.99 | 3.63 | 89 | 1012.6 |
| 20260506195336 | 10 | 232 | 1.6 | 6.4 | 0.00 | 19.99 | 3.63 | 87 | 1012.5 |
| 20260506194816 | 10 | 80 | 3.2 | 9.7 | 0.00 | 19.99 | 3.63 | 87 | 1012.3 |
| 20260506194316 | 10 | 298 | 4.8 | 9.7 | 0.00 | 19.99 | 3.63 | 86 | 1012.4 |
| 20260506193814 | 10 | 17 | 4.8 | 9.7 | 0.00 | 19.99 | 3.63 | 85 | 1012.2 |
| 20260506193312 | 10 | 53 | 3.2 | 9.7 | 0.00 | 19.99 | 3.63 | 86 | 1012.0 |
| 20260506192814 | 10 | 294 | 4.8 | 8.0 | 0.00 | 19.99 | 3.63 | 86 | 1012.1 |
| 20260506192332 | 10 | 285 | 4.8 | 16.1 | 0.00 | 19.99 | 3.63 | 85 | 1012.1 |
| 20260506191830 | 10 | 229 | 8.0 | 19.3 | 0.00 | 19.99 | 3.63 | 85 | 1012.1 |
| 20260506191329 | 10 | 269 | 11.3 | 19.3 | 0.00 | 19.99 | 3.63 | 87 | 1012.0 |
| 20260506190830 | 10 | 219 | 6.4 | 12.9 | 0.00 | 19.99 | 3.63 | 85 | 1011.9 |
| 20260506190326 | 10 | 26 | 4.8 | 9.7 | 0.00 | 19.99 | 3.63 | 84 | 1012.0 |
| 20260506185828 | 10 | 360 | 3.2 | 14.5 | 0.10 | 19.99 | 3.63 | 83 | 1011.9 |
| 20260506185326 | 10 | 322 | 8.0 | 14.5 | 0.61 | 19.99 | 3.63 | 82 | 1011.7 |
| 20260506184826 | 10 | 281 | 4.8 | 14.5 | 0.89 | 19.99 | 3.63 | 82 | 1011.8 |
| 20260506184325 | 10 | 204 | 4.8 | 12.9 | 0.99 | 19.99 | 3.63 | 85 | 1011.8 |
| 20260506183842 | 10 | 329 | 6.4 | 12.9 | 1.50 | 19.99 | 3.63 | 89 | 1011.6 |
| 20260506183322 | 10 | 267 | 3.2 | 11.3 | 2.90 | 19.99 | 3.63 | 90 | 1011.6 |
| 20260506182822 | 10 | 95 | 1.6 | 11.3 | 4.09 | 19.99 | 3.63 | 90 | 1011.4 |
| 20260506182320 | 10 | 86 | 1.6 | 11.3 | 5.59 | 19.99 | 3.63 | 91 | 1011.4 |
| 20260506181817 | 9 | 258 | 8.0 | 11.3 | 5.69 | 19.99 | 3.63 | 91 | 1011.3 |
| 20260506181315 | 10 | 261 | 4.8 | 8.0 | 5.69 | 19.99 | 3.63 | 91 | 1011.2 |
| 20260506180833 | 10 | 273 | 6.4 | 9.7 | 5.79 | 19.99 | 3.63 | 90 | 1011.4 |
| 20260506180353 | 10 | 188 | 1.6 | 9.7 | 5.79 | 19.99 | 3.63 | 89 | 1011.3 |
| 20260506175851 | 10 | 26 | 3.2 | 17.7 | 5.69 | 19.89 | 3.63 | 89 | 1011.0 |
| 20260506175330 | 10 | 316 | 9.7 | 22.5 | 5.21 | 19.41 | 3.53 | 88 | 1011.0 |
| 20260506174848 | 9 | 265 | 16.1 | 22.5 | 4.80 | 19.00 | 3.43 | 88 | 1010.8 |
| 20260506174347 | 9 | 257 | 17.7 | 27.4 | 4.80 | 19.00 | 3.43 | 87 | 1010.7 |
| 20260506173823 | 9 | 255 | 17.7 | 27.4 | 4.19 | 18.39 | 3.33 | 86 | 1010.5 |
| 20260506173322 | 10 | 246 | 17.7 | 27.4 | 2.69 | 16.89 | 3.02 | 83 | 1010.4 |
| 20260506172842 | 12 | 14 | 14.5 | 27.4 | 1.40 | 15.60 | 2.77 | 76 | 1010.4 |
| 20260506172319 | 12 | 269 | 19.3 | 27.4 | 0.20 | 14.40 | 2.51 | 76 | 1009.9 |
| 20260506171817 | 12 | 226 | 6.4 | 12.9 | 0.10 | 14.30 | 2.49 | 77 | 1009.5 |
| 20260506171336 | 12 | 79 | 8.0 | 12.9 | 0.10 | 14.30 | 2.49 | 86 | 1009.1 |
| 20260506170817 | 12 | 306 | 8.0 | 12.9 | 0.00 | 14.20 | 2.49 | 88 | 1009.4 |
| 20260506170336 | 12 | 296 | 4.8 | 6.4 | 0.00 | 14.20 | 2.49 | 88 | 1009.1 |
| 20260506165814 | 12 | 189 | 3.2 | 4.8 | 0.00 | 14.20 | 2.49 | 87 | 1008.7 |
| 20260506165314 | 12 | 109 | 0.0 | 9.7 | 0.00 | 14.20 | 2.49 | 87 | 1008.5 |
| 20260506164832 | 12 | 90 | 1.6 | 12.9 | 0.00 | 14.20 | 2.49 | 86 | 1008.4 |
| 20260506164330 | 12 | 224 | 8.0 | 12.9 | 0.00 | 14.20 | 2.49 | 87 | 1008.6 |
| 20260506163829 | 12 | 42 | 3.2 | 8.0 | 0.00 | 14.20 | 2.49 | 86 | 1008.8 |
| 20260506163348 | 12 | 327 | 4.8 | 9.7 | 0.00 | 14.20 | 2.49 | 86 | 1008.8 |
| 20260506162825 | 12 | 238 | 6.4 | 9.7 | 0.00 | 14.20 | 2.49 | 87 | 1008.7 |
| 20260506162324 | 12 | 257 | 1.6 | 4.8 | 0.00 | 14.20 | 2.49 | 88 | 1008.6 |
| 20260506161823 | 12 | 184 | 3.2 | 6.4 | 0.00 | 14.20 | 2.49 | 85 | 1008.8 |
| 20260506161322 | 12 | 277 | 1.6 | 6.4 | 0.00 | 14.91 | 2.49 | 85 | 1008.8 |
| 20260506160822 | 12 | 252 | 3.2 | 6.4 | 0.00 | 14.91 | 2.49 | 87 | 1009.0 |
| 20260506160322 | 13 | 250 | 4.8 | 6.4 | 0.00 | 14.91 | 2.49 | 88 | 1009.1 |
| 20260506155823 | 13 | 166 | 3.2 | 6.4 | 0.00 | 14.91 | 2.49 | 86 | 1009.1 |
| 20260506155336 | 13 | 327 | 1.6 | 3.2 | 0.00 | 14.91 | 2.49 | 84 | 1008.9 |
| 20260506154834 | 13 | 285 | 0.0 | 4.8 | 0.00 | 14.91 | 2.49 | 86 | 1008.8 |
| 20260506154353 | 13 | 302 | 1.6 | 4.8 | 0.00 | 14.91 | 2.49 | 86 | 1008.8 |
| 20260506153830 | 13 | 194 | 1.6 | 4.8 | 0.00 | 14.91 | 2.49 | 86 | 1008.9 |
| 20260506153327 | 13 | 169 | 3.2 | 4.8 | 0.00 | 14.91 | 2.49 | 86 | 1009.0 |
| 20260506152825 | 13 | 83 | 1.6 | 4.8 | 0.00 | 14.91 | 2.49 | 86 | 1008.9 |
| 20260506152324 | 12 | 38 | 3.2 | 4.8 | 0.00 | 14.91 | 2.49 | 87 | 1009.0 |
| 20260506151821 | 12 | 107 | 1.6 | 4.8 | 0.00 | 14.91 | 2.49 | 87 | 1009.0 |
| 20260506151340 | 12 | 148 | 1.6 | 3.2 | 0.00 | 15.39 | 2.49 | 85 | 1009.1 |
| 20260506150819 | 12 | 232 | 0.0 | 4.8 | 0.00 | 15.39 | 2.49 | 86 | 1009.2 |
| 20260506150338 | 12 | 185 | 3.2 | 6.4 | 0.00 | 15.39 | 2.49 | 88 | 1009.4 |
| 20260506145814 | 12 | 175 | 1.6 | 6.4 | 0.00 | 15.39 | 2.49 | 87 | 1009.4 |
| 20260506145331 | 12 | 257 | 3.2 | 4.8 | 0.00 | 15.39 | 2.49 | 87 | 1009.4 |
| 20260506144832 | 12 | 205 | 3.2 | 6.4 | 0.00 | 15.39 | 2.49 | 87 | 1009.5 |
| 20260506144331 | 12 | 244 | 4.8 | 8.0 | 0.00 | 15.39 | 2.49 | 87 | 1009.6 |
| 20260506143829 | 12 | 165 | 3.2 | 8.0 | 0.00 | 15.39 | 2.49 | 88 | 1009.7 |
| 20260506143327 | 12 | 175 | 0.0 | 4.8 | 0.00 | 15.39 | 2.49 | 87 | 1009.8 |
| 20260506142825 | 12 | 109 | 3.2 | 4.8 | 0.00 | 15.39 | 2.49 | 88 | 1010.0 |
| 20260506142323 | 12 | 175 | 1.6 | 3.2 | 0.00 | 15.39 | 2.49 | 86 | 1010.0 |
| 20260506141821 | 12 | 175 | 1.6 | 4.8 | 0.00 | 15.39 | 2.49 | 87 | 1010.1 |
| 20260506141341 | 12 | 316 | 1.6 | 4.8 | 0.00 | 15.90 | 2.49 | 87 | 1010.1 |
| 20260506140837 | 12 | 167 | 0.0 | 3.2 | 0.00 | 15.90 | 2.49 | 89 | 1010.2 |
| 20260506140315 | 12 | 164 | 1.6 | 4.8 | 0.00 | 15.90 | 2.49 | 89 | 1010.2 |
| 20260506135816 | 11 | 190 | 3.2 | 4.8 | 0.00 | 15.90 | 2.49 | 90 | 1010.4 |
| 20260506135316 | 11 | 123 | 3.2 | 6.4 | 0.00 | 15.90 | 2.49 | 91 | 1010.3 |
| 20260506134815 | 11 | 171 | 4.8 | 6.4 | 0.00 | 15.90 | 2.49 | 92 | 1010.3 |
| 20260506134331 | 11 | 207 | 4.8 | 4.8 | 0.00 | 15.90 | 2.49 | 91 | 1010.4 |
| 20260506133829 | 11 | 193 | 4.8 | 4.8 | 0.00 | 15.90 | 2.49 | 93 | 1010.5 |
| 20260506133348 | 11 | 244 | 3.2 | 4.8 | 0.00 | 15.90 | 2.49 | 93 | 1010.4 |
| 20260506132825 | 11 | 239 | 4.8 | 6.4 | 0.00 | 15.90 | 2.49 | 93 | 1010.6 |
| 20260506132324 | 11 | 212 | 3.2 | 6.4 | 0.00 | 15.90 | 2.49 | 94 | 1010.6 |
| 20260506131824 | 11 | 144 | 3.2 | 4.8 | 0.00 | 15.90 | 2.49 | 95 | 1010.6 |
| 20260506131324 | 11 | 227 | 4.8 | 6.4 | 0.00 | 16.61 | 2.49 | 96 | 1010.5 |
| 20260506130822 | 11 | 205 | 4.8 | 6.4 | 0.00 | 16.61 | 2.49 | 96 | 1010.6 |
| 20260506130320 | 11 | 222 | 3.2 | 8.0 | 0.00 | 16.61 | 2.49 | 96 | 1010.5 |
| 20260506125817 | 10 | 220 | 3.2 | 8.0 | 0.00 | 16.61 | 2.49 | 96 | 1010.6 |
| 20260506125337 | 10 | 194 | 1.6 | 3.2 | 0.00 | 16.61 | 2.49 | 96 | 1010.6 |
| 20260506124815 | 10 | 306 | 0.0 | 3.2 | 0.00 | 16.61 | 2.49 | 96 | 1010.6 |
| 20260506124316 | 10 | 232 | 1.6 | 4.8 | 0.00 | 16.61 | 2.49 | 96 | 1010.6 |
| 20260506123816 | 10 | 190 | 3.2 | 4.8 | 0.00 | 16.61 | 2.49 | 96 | 1010.7 |
| 20260506123316 | 10 | 162 | 3.2 | 6.4 | 0.00 | 16.61 | 2.49 | 96 | 1010.6 |
| 20260506122816 | 10 | 103 | 4.8 | 6.4 | 0.00 | 16.61 | 2.49 | 96 | 1010.8 |
| 20260506122315 | 10 | 163 | 3.2 | 6.4 | 0.00 | 16.61 | 2.49 | 96 | 1010.7 |
| 20260506121830 | 11 | 95 | 3.2 | 6.4 | 0.10 | 16.61 | 2.49 | 96 | 1010.7 |
| 20260506121351 | 10 | 112 | 4.8 | 6.4 | 0.20 | 16.79 | 2.49 | 96 | 1010.8 |
| 20260506120830 | 10 | 191 | 0.0 | 4.8 | 0.51 | 16.79 | 2.49 | 96 | 1010.8 |
| 20260506120330 | 10 | 158 | 4.8 | 6.4 | 0.71 | 16.79 | 2.49 | 96 | 1010.8 |
| 20260506115831 | 10 | 125 | 3.2 | 6.4 | 0.99 | 16.79 | 2.49 | 96 | 1010.9 |
| 20260506115330 | 10 | 119 | 3.2 | 6.4 | 1.30 | 16.79 | 2.49 | 96 | 1010.9 |
| 20260506114830 | 10 | 146 | 3.2 | 4.8 | 1.70 | 16.79 | 2.49 | 96 | 1010.9 |
| 20260506114330 | 10 | 115 | 1.6 | 4.8 | 1.91 | 16.79 | 2.49 | 97 | 1010.9 |
| 20260506113829 | 10 | 180 | 1.6 | 3.2 | 2.39 | 16.79 | 2.49 | 96 | 1010.9 |
| 20260506113326 | 10 | 140 | 0.0 | 3.2 | 2.79 | 16.79 | 2.49 | 96 | 1010.9 |
| 20260506112828 | 10 | 140 | 0.0 | 3.2 | 3.81 | 16.79 | 2.49 | 95 | 1011.0 |
| 20260506112325 | 10 | 140 | 0.0 | 3.2 | 4.29 | 16.69 | 2.46 | 95 | 1011.0 |
| 20260506111827 | 10 | 173 | 0.0 | 3.2 | 6.10 | 16.69 | 2.46 | 95 | 1010.9 |
| 20260506111325 | 10 | 105 | 0.0 | 3.2 | 6.50 | 16.61 | 2.44 | 95 | 1010.9 |
| 20260506110824 | 10 | 119 | 1.6 | 6.4 | 6.30 | 16.31 | 2.39 | 95 | 1011.0 |
| 20260506110343 | 10 | 117 | 3.2 | 6.4 | 6.10 | 16.10 | 2.34 | 95 | 1011.0 |
| 20260506105822 | 10 | 279 | 1.6 | 4.8 | 5.99 | 15.80 | 2.29 | 95 | 1010.9 |
| 20260506105321 | 10 | 59 | 0.0 | 6.4 | 5.79 | 15.49 | 2.21 | 94 | 1011.0 |
| 20260506104820 | 10 | 59 | 4.8 | 6.4 | 5.69 | 15.09 | 2.13 | 94 | 1010.9 |
| 20260506104319 | 10 | 117 | 4.8 | 9.7 | 5.89 | 14.81 | 2.11 | 94 | 1010.9 |
| 20260506103819 | 10 | 263 | 0.0 | 9.7 | 5.51 | 14.30 | 1.98 | 93 | 1010.8 |
| 20260506103318 | 10 | 246 | 3.2 | 8.0 | 5.21 | 14.00 | 1.93 | 94 | 1010.9 |
| 20260506102844 | 10 | 302 | 4.8 | 14.5 | 4.19 | 12.90 | 1.70 | 93 | 1010.9 |
| 20260506102322 | 10 | 236 | 8.0 | 14.5 | 3.71 | 12.19 | 1.55 | 93 | 1011.1 |
| 20260506101819 | 10 | 257 | 9.7 | 12.9 | 2.11 | 10.49 | 1.22 | 92 | 1011.1 |
| 20260506101317 | 10 | 250 | 6.4 | 9.7 | 1.70 | 10.21 | 1.14 | 92 | 1011.0 |
| 20260506100815 | 10 | 235 | 3.2 | 4.8 | 1.60 | 10.11 | 1.12 | 93 | 1011.2 |
| 20260506100314 | 10 | 153 | 1.6 | 12.9 | 1.60 | 10.11 | 1.12 | 92 | 1011.0 |
| 20260506095833 | 10 | 234 | 6.4 | 12.9 | 1.40 | 9.91 | 1.09 | 91 | 1011.2 |
| 20260506095332 | 10 | 261 | 6.4 | 12.9 | 1.30 | 9.80 | 1.07 | 92 | 1011.2 |
| 20260506094832 | 10 | 250 | 8.0 | 14.5 | 0.99 | 9.50 | 0.99 | 91 | 1011.4 |
| 20260506094349 | 10 | 249 | 11.3 | 14.5 | 0.51 | 8.99 | 0.89 | 92 | 1011.2 |
| 20260506093827 | 10 | 239 | 8.0 | 11.3 | 0.51 | 8.89 | 0.89 | 92 | 1010.9 |
| 20260506093325 | 10 | 228 | 4.8 | 11.3 | 0.51 | 8.89 | 0.89 | 89 | 1010.9 |
| 20260506092826 | 10 | 261 | 6.4 | 11.3 | 0.51 | 8.79 | 0.86 | 89 | 1010.8 |
| 20260506092324 | 10 | 280 | 4.8 | 12.9 | 0.30 | 8.61 | 0.81 | 89 | 1011.0 |
| 20260506091844 | 10 | 267 | 8.0 | 12.9 | 0.20 | 8.51 | 0.79 | 87 | 1011.0 |
| 20260506091321 | 10 | 236 | 4.8 | 8.0 | 0.20 | 8.99 | 0.79 | 88 | 1010.8 |
| 20260506090820 | 10 | 267 | 3.2 | 9.7 | 0.20 | 8.99 | 0.79 | 88 | 1010.8 |
| 20260506090318 | 10 | 49 | 4.8 | 9.7 | 0.30 | 8.99 | 0.79 | 87 | 1010.8 |
| 20260506085816 | 10 | 342 | 6.4 | 9.7 | 0.51 | 8.99 | 0.79 | 88 | 1010.9 |
| 20260506085337 | 10 | 232 | 4.8 | 8.0 | 0.61 | 8.99 | 0.79 | 90 | 1010.8 |
| 20260506084837 | 10 | 217 | 3.2 | 6.4 | 0.61 | 8.99 | 0.79 | 91 | 1010.9 |
| 20260506084315 | 10 | 202 | 0.0 | 6.4 | 0.61 | 8.99 | 0.79 | 91 | 1010.9 |
| 20260506083815 | 10 | 257 | 4.8 | 6.4 | 0.51 | 8.89 | 0.79 | 91 | 1011.2 |
| 20260506083334 | 10 | 239 | 3.2 | 6.4 | 0.61 | 8.89 | 0.79 | 90 | 1011.1 |
| 20260506082833 | 10 | 20 | 1.6 | 6.4 | 0.51 | 8.79 | 0.76 | 91 | 1011.0 |
| 20260506082349 | 10 | 355 | 3.2 | 6.4 | 0.51 | 8.79 | 0.76 | 93 | 1011.1 |
| 20260506081828 | 10 | 344 | 3.2 | 6.4 | 0.61 | 8.79 | 0.76 | 93 | 1011.2 |
| 20260506081345 | 10 | 227 | 1.6 | 6.4 | 0.61 | 8.99 | 0.76 | 93 | 1011.2 |
| 20260506080843 | 10 | 26 | 3.2 | 9.7 | 0.51 | 8.89 | 0.74 | 93 | 1011.1 |
| 20260506080321 | 10 | 100 | 6.4 | 9.7 | 0.61 | 8.89 | 0.74 | 93 | 1011.2 |
| 20260506073318 | 10 | 355 | 1.6 | 6.4 | 0.20 | 8.51 | 0.66 | 96 | 1011.0 |
| 20260506072818 | 10 | 215 | 1.6 | 4.8 | 0.20 | 8.51 | 0.66 | 95 | 1011.1 |
| 20260506072317 | 10 | 279 | 3.2 | 4.8 | 0.20 | 8.51 | 0.66 | 95 | 1011.1 |
| 20260506071836 | 10 | 29 | 1.6 | 8.0 | 0.10 | 8.41 | 0.64 | 96 | 1011.0 |
| 20260506071335 | 10 | 92 | 3.2 | 8.0 | 0.10 | 8.41 | 0.64 | 96 | 1011.1 |
| 20260506070835 | 10 | 104 | 3.2 | 6.4 | 0.10 | 8.41 | 0.64 | 96 | 1011.2 |
| 20260506070315 | 10 | 131 | 3.2 | 4.8 | 0.10 | 8.31 | 0.61 | 96 | 1011.3 |
| 20260506062328 | 10 | 138 | 0.0 | 3.2 | 0.71 | 8.31 | 0.61 | 96 | 1011.4 |
| 20260506061827 | 10 | 138 | 1.6 | 4.8 | 0.79 | 8.31 | 0.61 | 96 | 1011.4 |
| 20260506061325 | 10 | 138 | 3.2 | 8.0 | 0.79 | 8.31 | 0.61 | 95 | 1011.6 |
| 20260506060818 | 10 | 144 | 3.2 | 8.0 | 0.99 | 8.31 | 0.61 | 96 | 1011.3 |
| 20260506060337 | 10 | 53 | 3.2 | 6.4 | 0.99 | 8.20 | 0.61 | 96 | 1011.3 |
| 20260506051325 | 10 | 239 | 3.2 | 4.8 | 2.01 | 7.39 | 0.43 | 95 | 1011.1 |
| 20260506050823 | 10 | 173 | 0.0 | 1.6 | 1.91 | 7.29 | 0.43 | 95 | 1011.0 |
| 20260506050323 | 11 | 182 | 0.0 | 4.8 | 1.91 | 7.19 | 0.41 | 95 | 1011.0 |
| 20260506044824 | 11 | 50 | 1.6 | 4.8 | 1.40 | 6.71 | 0.30 | 95 | 1011.5 |
| 20260506044323 | 11 | 81 | 0.0 | 3.2 | 1.19 | 6.50 | 0.25 | 95 | 1011.8 |
| 20260506043841 | 11 | 81 | 1.6 | 3.2 | 0.99 | 6.30 | 0.23 | 95 | 1011.8 |
| 20260506043319 | 11 | 81 | 1.6 | 3.2 | 0.71 | 5.99 | 0.15 | 95 | 1011.7 |
| 20260506042821 | 11 | 81 | 0.0 | 3.2 | 0.51 | 5.79 | 0.13 | 95 | 1011.6 |
| 20260506042320 | 11 | 81 | 0.0 | 3.2 | 0.30 | 5.59 | 0.08 | 95 | 1011.5 |
| 20260506041818 | 11 | 81 | 0.0 | 4.8 | 0.20 | 5.51 | 0.05 | 95 | 1011.4 |
| 20260506041317 | 11 | 81 | 3.2 | 4.8 | 0.10 | 5.41 | 0.05 | 95 | 1011.4 |
| 20260506040818 | 11 | 32 | 3.2 | 4.8 | 0.10 | 5.41 | 0.05 | 95 | 1011.2 |
| 20260506040332 | 11 | 41 | 0.0 | 4.8 | 0.00 | 5.31 | 0.03 | 95 | 1011.3 |
| 20260506035852 | 11 | 22 | 1.6 | 4.8 | 0.00 | 5.31 | 0.03 | 95 | 1011.2 |
| 20260506035351 | 11 | 344 | 1.6 | 4.8 | 0.00 | 5.31 | 0.03 | 95 | 1011.1 |
| 20260506034829 | 11 | 360 | 3.2 | 4.8 | 0.00 | 5.31 | 0.03 | 95 | 1011.1 |
| 20260506034329 | 11 | 212 | 3.2 | 6.4 | 0.00 | 5.31 | 0.03 | 96 | 1011.2 |
| 20260506033830 | 11 | 262 | 1.6 | 6.4 | 0.00 | 5.31 | 0.03 | 96 | 1011.1 |
| 20260506033329 | 11 | 253 | 4.8 | 6.4 | 0.00 | 5.31 | 0.03 | 96 | 1011.1 |
| 20260506032828 | 11 | 234 | 3.2 | 4.8 | 0.00 | 5.31 | 0.03 | 96 | 1011.2 |
| 20260506032328 | 10 | 253 | 3.2 | 3.2 | 0.00 | 5.31 | 0.03 | 96 | 1011.2 |
| 20260506031829 | 11 | 242 | 3.2 | 3.2 | 0.00 | 5.31 | 0.03 | 96 | 1011.3 |
| 20260506031329 | 11 | 122 | 1.6 | 4.8 | 0.00 | 5.31 | 0.03 | 96 | 1011.4 |
| 20260506030849 | 11 | 105 | 3.2 | 4.8 | 0.00 | 5.31 | 0.03 | 96 | 1011.4 |
| 20260506030325 | 11 | 273 | 1.6 | 3.2 | 0.00 | 5.31 | 0.03 | 96 | 1011.5 |
| 20260506025824 | 11 | 242 | 1.6 | 3.2 | 0.00 | 5.31 | 0.03 | 96 | 1011.7 |
| 20260506025322 | 11 | 29 | 1.6 | 3.2 | 0.00 | 5.31 | 0.03 | 96 | 1012.0 |
| 20260506024820 | 11 | 83 | 1.6 | 4.8 | 0.00 | 5.31 | 0.03 | 96 | 1012.0 |
| 20260506024321 | 11 | 90 | 3.2 | 4.8 | 0.00 | 5.31 | 0.03 | 96 | 1012.0 |
| 20260506023821 | 11 | 20 | 3.2 | 4.8 | 0.00 | 5.31 | 0.03 | 96 | 1012.1 |
| 20260506023321 | 11 | 150 | 1.6 | 8.0 | 0.00 | 5.31 | 0.03 | 96 | 1012.1 |
| 20260506022819 | 11 | 306 | 3.2 | 8.0 | 0.00 | 5.31 | 0.03 | 96 | 1012.0 |
| 20260506022346 | 11 | 265 | 6.4 | 9.7 | 0.00 | 5.31 | 0.03 | 96 | 1012.2 |
| 20260506021824 | 11 | 232 | 3.2 | 4.8 | 0.00 | 5.31 | 0.03 | 96 | 1012.1 |
| 20260506021321 | 11 | 308 | 1.6 | 3.2 | 0.00 | 5.31 | 0.03 | 96 | 1012.2 |
| 20260506020843 | 11 | 29 | 1.6 | 4.8 | 0.00 | 5.31 | 0.03 | 96 | 1012.3 |
| 20260506020322 | 11 | 40 | 3.2 | 4.8 | 0.00 | 5.31 | 0.03 | 96 | 1012.3 |
| 20260506015819 | 11 | 164 | 1.6 | 4.8 | 0.00 | 5.31 | 0.03 | 96 | 1012.3 |